Other Public Products
Issued by NWS Grand Forks, ND

Home | Current Version | Previous Version | Text Only | Print | Product List | Glossary On
Versions: 1 2 3 4 5 6 7 8 9 10 11 12 13 14 15 16 17 18 19 20 21 22 23 24 25 26 27 28 29 30 31 32 33 34 35 36 37 38 39 40 41 42 43 44 45 46 47 48 49 50
000
FPUS83 KFGF 030210
OPUFGF
PRAIRIE TO PINES WEATHER ROUNDUP
NATIONAL WEATHER SERVICE EASTERN NORTH DAKOTA/GRAND FORKS ND
900 PM CDT TUE SEP 02 2014

 **SATELLITE DATA USED TO AUGMENT SKY COVER AT AUTOMATED STATIONS**
 *****  WEATHER ACROSS EASTERN NORTH DAKOTA  *****

CITY           SKY/WX    TMP DP  RH WIND       PRES   REMARKS
GRAND FORKS    PTCLDY    67  53  61 SW7       29.69R
GRAND FORKS AF CLEAR     62  56  81 SW8       29.71R
GRAND CITY NWS   N/A     66 N/A N/A SW5         N/A
BUXTON         NOT AVBL
DEVILS LAKE    CLEAR     64  52  63 W5        29.71R
FARGO          MOCLDY    68  58  70 S7        29.73R
WAHPETON ARPT  CLEAR     64  54  68 S9        29.77R
$$

 *****  WEATHER ACROSS CENTRAL AND WESTERN NORTH DAKOTA  *****

CITY           SKY/WX    TMP DP  RH WIND       PRES   REMARKS
JAMESTOWN      CLEAR     63  53  70 CALM      29.75R
BISMARCK       PTCLDY    68  52  56 W3        29.76R
MINOT          CLEAR     59  47  64 NW6       29.74R
MINOT AFB      CLEAR     60  51  72 NW6       29.73R
GARRISON         N/A     62  50  64 W6        29.75R
WILLISTON      PTCLDY    64  49  57 CALM      29.73S
DICKINSON      CLEAR     62  47  57 W5        29.78R
HETTINGER      CLEAR     61  47  59 N3        29.80S
$$

 *****  OTHER OBSERVATIONS NORTHEAST NORTH DAKOTA  *****

CITY           SKY/WX    TMP DP  RH WIND       PRES   REMARKS
WALHALLA         N/A     59  59 100 CALM      29.70R
LANGDON        FAIR      57  54  88 E3        29.72R
CAVALIER       FAIR      57  57 100 CALM      29.69R
GRAFTON        FAIR      59  55  88 CALM      29.69R
CANDO          FAIR      57  52  82 W7        29.73R
FORT TOTTEN      N/A     61  52  72 CALM      29.95
ROLLA          FAIR      55  54  94 NW7       29.75R
RUGBY          FAIR      59  52  77 NW3       29.73R
 ***** THE ABOVE OBSERVATIONS ARE NON NWS ARE NOT QUALITY
        CONTROLLED AND MAY MIS-REPORT RAIN FOR SNOW...
$$

 *****  OTHER OBSERVATIONS SOUTHEAST NORTH DAKOTA *****

CITY           SKY/WX    TMP DP  RH WIND       PRES   REMARKS
COOPERSTOWN    NOT AVBL
VALLEY CITY    MOCLDY    64  57  77 W6        29.75R
OAKES            N/A     61  59  94 SE8       29.75S
GWINNER        CLEAR     64  59  82 S10       29.76S
BUFFALO        NOT AVBL
WYNDMERE       NOT AVBL
 ***** THE ABOVE OBSERVATIONS ARE NON NWS ARE NOT QUALITY
       CONTROLLED AND MAY MIS-REPORT RAIN FOR SNOW...
$$

  *****  WEATHER ACROSS NORTHERN MINNESOTA  *****

CITY           SKY/WX    TMP DP  RH WIND       PRES   REMARKS
FLAG ISLAND    PTCLDY    61  55  82 S5        29.68S
WARROAD        CLOUDY    57  54  88 S3        29.69S
ROSEAU         PTCLDY    57  52  82 S3        29.69S
HALLOCK        CLEAR     57  55  94 CALM      29.68R
THF RVR FALLS  MOCLDY    63  54  72 NE7       29.72R
HALSTAD          N/A     62  57  86 SW9         N/A
FOSSTON        PTCLDY    57  52  82 SW6       29.75R
BAUDETTE       LGT RAIN  57  53  86 S12       29.70F
WASKISH        LGT RAIN  55  54  94 E3        29.78S
CROOKSTON      CLEAR     64  54  68 SW8       29.71R
$$
  *****  WEATHER ACROSS CENTRAL AND WEST MINNESOTA  *****

CITY           SKY/WX    TMP DP  RH WIND       PRES   REMARKS
BEMIDJI        MOCLDY    64  55  72 SW9       29.75S
PARK RAPIDS    MOCLDY    66  56  70 S12       29.77S
WADENA         PTCLDY    61  55  82 S5        29.80R
DETROIT LAKES  CLEAR     68  55  64 SW8       29.78S
MOORHEAD       PTCLDY    70  61  73 SW7       29.74S
FERGUS FALLS   CLEAR     66  54  63 S10       29.78R
ELBOW LAKE     FAIR      64  58  81 S10       29.80R
MORRIS MN      CLEAR     64  57  77 S8        29.82R
STAPLES        CLEAR     63  54  72 S8        29.81R
WHEATON        CLEAR     64  55  72 S10       29.80S
$$
  *****  WEATHER ELSEWHERE ACROSS MINNESOTA  *****

CITY           SKY/WX    TMP DP  RH WIND       PRES   REMARKS
DULUTH         PTCLDY    59  54  83 SE10      29.82S
INTRNTL FALLS  TSTM      56  54  93 S6        29.76R FOG
ELY            PTCLDY    54  52  94 S3        29.80S
CLOQUET        CLEAR     63  52  67 S3        29.82S
BRAINERD       CLEAR     64  55  72 S10       29.81S
HIBBING        PTCLDY    56  53  90 SE5       29.79F
ALEXANDRIA     CLEAR     67  56  67 S9        29.84R
SAINT CLOUD    PTCLDY    66  58  75 S5        29.84S
MINNEAPOLIS    PTCLDY    72  55  55 SW7       29.87S
$$

  *****  WEATHER ACROSS SOUTH DAKOTA  *****

CITY           SKY/WX    TMP DP  RH WIND       PRES   REMARKS
SIOUX FALLS    MOCLDY    66  57  72 S7        29.89R
BROOKINGS      NOT AVBL
WATERTOWN      MOCLDY    65  55  70 S9        29.84S
HURON          MOCLDY    69  56  62 SE8       29.80F
SISSETON         N/A     66  56  70 SW10      29.78S
ABERDEEN       MOCLDY    64  56  75 S9        29.76S
MITCHELL       PTCLDY    68  59  73 SE9       29.83F
PIERRE         CLEAR     70  51  51 SE7       29.75S
MOBRIDGE       MOCLDY    62  58  86 CALM      29.74R
RAPID CITY     CLEAR     64  47  53 E6        29.80S
$$

  *****  SOME WEATHER IN NEARBY STATES *****

CITY           SKY/WX    TMP DP  RH WIND       PRES   REMARKS
GLASGOW MT     PTCLDY    65  43  44 S7        29.70F
GREAT FALLS MT CLEAR     66  37  34 W8        29.69S
CHEYENNE WY    PTCLDY    68  41  37 SW7       30.02R
SCOTTSBLUFF NE CLEAR     67  55  65 E6        29.85S
OMAHA NE       CLEAR     71  61  70 SE5       29.94R
DES MOINES IA  CLEAR     73  60  63 CALM      29.95R
DAVENPORT IA   CLEAR     64  60  87 NW3       29.96R
CHICAGO IL     MOCLDY    73  58  59 NW5       29.92R
EAU CLAIRE WI  PTCLDY    62  56  80 SW5       29.88R
LA CROSSE WI   CLEAR     69  59  70 W5        29.89R
$$

  *****  SOME NATIONAL WEATHER *****

CITY           SKY/WX    TMP DP  RH WIND       PRES   REMARKS
LA GUARDIA NY  MOCLDY    86  70  58 SW12G21   29.80S HX  90
RALEIGH NC     PTCLDY    77  68  73 SW8       30.00S
ATLANTA GA     PTCLDY    79  71  76 CALM      30.04R
NEW ORLEANS LA CLOUDY    84  74  71 S5        30.04R HX  91
OKLAHOMA CITY  CLEAR     84  67  56 SE13      29.91R
ALBUQUERQUE NM PTCLDY    83  32  16 SE8       30.02S
SALT LAKE CITY PTCLDY    80  41  24 N7        29.81F
LOS ANGELES CA PTCLDY    72  64  78 W12       29.78F
BOISE ID       CLEAR     86  32  14 N5        29.67F
SEATTLE WA     MOCLDY    64  53  67 SW20G26   29.82R
$$

*** WEATHER ACROSS MANITOBA...SASKATCHEWAN AND ONTARIO ***
                ***ONTARIO***

CITY           SKY/WX    TMP DP  RH WIND       PRES   REMARKS
GERALDTON      PTCLDY    55  50  82 SW2       29.74R
THUNDER BAY    PTCLDY    55  54  94 SW3       29.77R
SIOUX LOOKOUT  MOCLDY    55  50  82 S3        29.70F
TORONTO        CLEAR     64  61  88 W7        29.88R
BIG TROUT LK   NOT AVBL
PICKLE LAKE    MOCLDY    61  48  63 SW10      29.67R
DRYDEN         CLEAR     59  52  77 S6        29.70S
KENORA         PTCLDY    61  52  72 S8        29.70R
$$
                *** MANITOBA***

CITY           SKY/WX    TMP DP  RH WIND       PRES   REMARKS
BRANDON        PTCLDY    59  52  77 NW2       29.72R
DAUPHIN        CLOUDY    59  54  82 W6        29.69R
ISLAND LAKE    PTCLDY    55  54  94 CALM      29.60R
PILOT MOUND      N/A     57  50  77 NW7         N/A
THE PAS        PTCLDY    61  46  59 N8        29.65R
THOMPSON       PTCLDY    52  48  87 NW5       29.59R
WINNIPEG       PTCLDY    55  54  94 W3        29.71R
LYNN LAKE      CLOUDY    50  43  76 MISG      29.66R
CHURCHILL      CLOUDY    48  46  93 E14       29.59S
GILLAM         PTCLDY    59  52  77 NW7       29.53R
$$
                ***SASKATCHEWAN***

CITY           SKY/WX    TMP DP  RH WIND       PRES   REMARKS
ESTEVAN        MOCLDY    59  50  72 CALM      29.75R
KINDERSLEY     CLOUDY    55  52  88 NE8       29.71R
LLOYDMINSTER   LGT RAIN  52  50  93 NE5       29.73S
PRINCE ALBERT  MOCLDY    57  48  72 N7        29.70R
REGINA         MOCLDY    61  50  67 NE7       29.71F
YORKTON        CLEAR     55  46  71 W7        29.72R



USA.gov is the U.S. government's official web portal to all federal, state and local government web resources and services.